Zurück zum Katalog

SL-11 R/B

AktivUNKNOWN
NORAD 4597·ROCKET BODY·🇷🇺 Russia

Gestartet Oct 23, 1970 von Baikonur Cosmodrome

Loading…

Nächste Überflüge (nächste 24 Stunden)

TLE

AktuellSource: Space-Track

Epoche: Sep 14, 2026, 10:18 UTC

1 04597U 70089B   26257.42936817  .00000012  00000-0  39229-4 0  9993
2 04597  62.9331  56.4900 0999723  69.0634 301.4356 12.95712482771246

Verfolge SL-11 R/B in Echtzeit mit AllMySat

Download on the App Store